Wind_Speed
20 21 22 23 24 25 25 27 28 29 30 31 33 33 34 35 35 35 35 35 35 35 36 36 37 38 38 40 41 42 43 43 43 43 43 43 43 43 44 45 46 46 46
22 23 24 25 26 27 28 29 30 32 33 34 36 36 37 38 38 37 37 36 35 35 36 36 36 37 37 39 40 41 42 43 44 44 45 45 45 44 44 45 46 47 45
24 25 26 27 28 29 30 31 33 35 36 38 39 40 40 40 40 39 37 36 35 35 35 35 35 35 36 37 39 40 41 43 43 44 46 46 46 45 45 45 46 46 45
26 27 28 29 30 31 33 34 36 37 39 40 41 42 42 42 41 39 37 37 36 35 35 34 34 34 35 36 37 39 40 42 43 44 45 47 46 46 46 46 46 46 46
28 28 29 31 32 33 35 37 39 40 42 43 44 44 43 42 41 39 37 36 36 35 35 34 34 34 34 35 36 37 39 40 42 44 45 46 48 47 47 46 46 46 46
29 30 31 32 34 35 37 39 41 42 44 45 45 44 43 42 40 39 37 36 35 35 34 34 34 33 34 35 36 37 39 40 42 44 45 47 48 48 48 48 46 45 44
31 31 32 34 35 37 39 41 43 44 45 45 45 44 42 41 40 38 37 35 35 34 33 33 33 33 33 34 35 37 38 40 42 44 45 47 49 50 50 50 49 47 45
32 32 34 35 37 39 41 44 45 46 46 46 45 43 41 40 38 37 35 34 34 33 32 32 32 33 33 33 34 35 37 39 41 43 45 47 50 51 51 51 50 49 46
33 34 35 37 39 41 44 46 47 47 47 46 44 42 39 38 37 35 34 33 32 32 32 31 31 32 32 32 33 34 36 39 42 44 45 48 50 51 52 52 51 51 48
35 36 38 40 42 44 46 48 49 48 47 45 43 41 38 37 36 35 33 32 32 31 31 31 31 31 32 32 33 34 35 38 41 44 46 47 50 52 53 53 53 52 51
38 39 41 42 44 47 49 50 50 49 47 44 42 39 37 35 34 33 32 32 31 31 31 31 31 30 31 32 33 34 35 36 38 42 45 47 49 51 53 54 54 55 53
41 42 43 44 47 50 51 51 51 49 46 43 40 37 36 34 34 33 32 32 31 31 30 30 30 30 30 30 31 32 34 35 36 39 42 46 48 50 52 54 55 56 56
45 45 46 47 49 51 52 52 51 49 45 42 39 36 35 34 34 32 32 31 31 30 29 29 29 29 28 28 28 29 30 32 34 36 39 43 47 50 51 53 55 58 58
49 48 49 49 51 52 52 52 51 48 45 41 38 36 35 34 33 32 31 31 30 29 28 28 28 27 27 27 27 27 28 29 32 34 37 40 45 49 50 53 55 57 58
51 51 52 53 53 53 53 52 50 47 44 40 37 35 34 33 33 32 32 31 30 29 28 27 27 26 26 25 25 25 26 27 29 32 36 38 42 46 50 52 54 57 58
54 54 54 54 53 53 52 50 48 45 43 40 37 35 33 32 32 32 31 30 30 28 27 26 25 24 24 23 24 23 24 25 26 28 32 35 39 43 48 52 54 56 57
55 55 55 56 55 53 51 49 47 44 41 38 36 34 32 31 31 31 30 29 28 26 25 25 24 23 23 22 22 22 22 22 23 25 28 31 35 39 45 50 53 54 56
57 58 57 56 54 53 50 47 44 41 39 36 35 34 32 31 31 31 30 28 27 25 24 24 23 22 20 20 20 20 20 20 20 21 24 27 31 36 42 47 51 52 54
59 58 57 55 53 51 48 45 43 40 37 35 34 33 32 31 30 30 28 27 26 25 24 23 22 20 19 18 18 18 17 17 18 18 20 23 27 32 38 43 48 51 53
59 58 56 54 52 49 46 43 41 38 35 34 33 32 30 29 29 28 26 26 25 24 23 21 20 18 18 17 17 16 15 15 15 16 17 20 24 29 35 40 44 47 50
59 57 54 52 49 46 43 40 38 36 34 32 31 30 28 28 27 26 25 25 24 23 21 20 18 17 17 16 16 15 14 14 14 14 15 18 21 26 31 37 41 44 48
57 54 52 49 46 43 40 37 35 33 31 30 29 27 26 26 25 24 24 24 22 21 20 19 17 16 15 15 15 15 14 14 14 14 14 16 18 23 29 33 38 41 45
53 50 47 44 42 39 36 34 32 30 29 27 26 26 25 24 24 23 22 22 21 20 19 18 17 16 15 15 15 15 14 14 14 14 15 16 18 22 27 31 35 39 42
48 46 43 41 38 36 33 31 29 28 26 25 25 24 23 23 22 22 21 20 20 20 19 18 17 16 15 14 14 14 14 14 14 15 15 16 18 21 25 29 33 37 40
45 42 40 37 34 32 30 28 26 25 24 23 23 22 21 21 20 20 20 19 19 19 19 18 16 15 14 13 13 13 13 14 15 16 17 18 19 21 24 27 31 34 37
40 38 36 33 30 27 26 25 24 23 22 21 20 20 20 19 19 18 18 18 18 18 17 16 14 13 13 13 13 13 14 14 15 17 18 19 20 22 24 28 30 33 35
Wind_Direction
328 328 328 327 325 324 324 323 322 320 320 319 317 315 312 310 308 306 302 298 294 289 284 280 276 272 268 263 259 255 252 247 243 241 241 238 236 234 233 232 231 230 228
329 329 329 328 326 325 324 323 322 320 319 318 316 314 312 310 308 306 303 299 295 290 285 280 276 273 269 264 259 255 251 247 243 240 239 239 236 234 233 232 231 230 229
329 329 328 328 326 325 324 323 322 320 319 317 316 314 311 309 308 306 303 299 295 291 286 281 277 273 269 265 260 255 251 247 243 240 237 238 236 234 233 230 230 229 230
329 329 328 327 327 326 324 323 322 320 318 317 315 313 311 309 307 305 303 299 296 292 287 282 278 274 270 265 261 256 252 248 244 240 237 236 236 235 233 231 230 229 229
328 327 326 325 325 324 324 323 321 320 318 316 314 313 311 308 307 305 302 299 296 292 288 284 279 275 271 266 262 257 252 248 245 241 238 236 235 234 233 232 231 229 229
325 325 324 324 324 323 322 322 321 320 319 317 315 313 310 308 306 304 302 299 296 293 290 285 281 276 272 267 262 258 253 249 245 242 239 237 235 234 233 232 232 231 230
323 322 322 322 322 322 322 322 321 321 319 317 315 313 310 307 305 304 302 300 296 293 291 287 283 279 273 268 263 258 254 250 246 242 239 236 235 233 232 232 231 230 230
320 320 320 321 322 322 323 323 323 322 320 318 316 314 310 307 305 304 302 300 297 294 292 289 285 281 276 270 265 261 256 251 247 243 239 236 234 232 231 231 230 229 229
318 318 319 320 322 323 323 324 324 323 321 319 316 314 310 308 306 304 302 300 297 294 293 290 287 283 278 273 268 263 259 253 248 244 240 237 234 232 231 229 229 228 227
316 317 318 320 321 323 324 325 325 324 323 320 317 314 311 308 307 305 304 302 298 296 293 291 288 284 279 274 270 266 261 256 251 246 241 237 234 232 231 230 228 227 226
315 316 318 319 322 323 324 324 324 324 323 320 317 314 311 309 307 305 303 302 300 297 294 292 289 285 281 276 271 267 262 258 254 247 241 237 234 231 230 229 227 226 224
313 315 317 319 322 323 323 323 323 324 323 320 317 313 311 309 308 306 304 303 301 298 295 292 289 286 283 279 273 268 264 259 253 248 241 237 233 231 229 227 226 225 223
313 314 315 316 319 320 321 322 322 322 321 319 317 314 312 310 309 307 306 304 302 300 296 293 290 286 283 280 276 270 265 259 252 247 242 238 234 231 229 226 225 224 222
311 313 314 315 316 317 318 320 320 319 319 318 315 313 312 310 309 308 308 306 304 302 298 296 292 287 284 282 279 274 268 261 253 247 242 239 235 231 228 226 224 222 221
309 312 312 312 314 314 315 317 317 317 317 317 315 313 311 309 309 309 308 307 305 302 299 298 294 289 285 283 281 277 270 262 256 250 244 239 235 231 227 225 223 221 220
309 310 310 310 312 312 313 314 315 314 314 314 314 313 310 309 309 310 309 308 305 303 300 299 297 290 285 283 282 279 272 264 258 253 246 239 235 230 226 223 221 219 219
306 309 309 309 310 310 311 312 312 312 312 311 312 312 311 309 309 310 310 309 307 304 302 300 298 292 284 282 281 279 274 268 262 255 247 239 234 229 224 221 219 218 217
305 307 307 307 307 308 309 310 310 310 309 309 310 311 311 310 310 311 311 309 308 306 304 301 298 294 286 282 280 278 275 270 264 256 246 238 232 226 222 219 217 216 215
303 304 305 305 305 306 307 307 307 307 306 306 307 308 309 310 311 312 312 311 310 308 306 303 299 294 287 283 282 277 273 267 261 257 245 236 227 222 218 216 215 215 213
301 302 302 302 302 302 303 303 303 303 303 304 305 306 307 309 311 311 311 312 311 310 310 306 300 294 288 283 280 277 271 263 257 252 243 234 225 218 214 213 212 213 212
299 299 299 299 299 299 299 299 299 299 300 301 302 304 305 307 310 310 311 312 312 309 308 305 300 292 286 281 277 275 270 262 253 245 241 230 222 215 211 210 210 209 209
297 297 296 296 295 295 295 295 295 295 296 298 300 302 304 307 309 309 309 312 313 310 307 304 299 294 287 278 274 270 266 256 248 241 233 225 218 212 208 207 207 207 207
295 294 294 293 292 292 292 292 292 292 293 296 298 300 302 305 307 308 309 310 311 311 308 304 297 291 287 280 273 265 259 251 242 234 228 221 214 209 205 204 205 205 205
292 291 290 290 289 288 287 288 288 289 290 293 295 297 299 302 305 307 308 308 310 311 307 303 297 288 285 278 270 263 253 245 234 226 221 218 214 209 205 204 205 204 205
289 287 286 285 284 283 283 282 283 285 287 291 293 295 298 301 304 307 309 308 308 309 309 304 297 289 282 274 265 259 252 242 231 223 217 213 209 207 205 202 201 202 204
284 283 282 280 278 278 278 278 280 284 285 288 290 293 297 301 304 308 310 310 310 311 310 304 297 290 282 274 264 253 243 237 229 219 214 211 208 205 204 202 201 202 204
Height
5824 5820 5816 5812 5808 5804 5800 5796 5792 5787 5783 5779 5774 5769 5765 5761 5756 5752 5748 5744 5741 5737 5734 5732 5730 5729 5728 5728 5729 5731 5733 5736 5739 5743 5745 5749 5752 5757 5762 5767 5771 5776 5782
5819 5815 5811 5806 5802 5798 5794 5790 5785 5780 5775 5771 5766 5760 5755 5751 5746 5741 5737 5733 5729 5726 5723 5720 5718 5717 5716 5716 5716 5718 5720 5723 5727 5731 5734 5738 5742 5747 5752 5756 5761 5766 5772
5813 5809 5805 5800 5796 5792 5787 5782 5778 5773 5767 5762 5756 5751 5745 5740 5735 5730 5725 5721 5717 5714 5711 5708 5706 5705 5704 5704 5704 5705 5708 5711 5714 5719 5723 5727 5731 5736 5741 5746 5751 5756 5761
5807 5803 5799 5794 5790 5785 5780 5775 5770 5764 5758 5752 5746 5740 5734 5728 5723 5718 5714 5710 5706 5702 5699 5697 5695 5693 5692 5692 5692 5693 5695 5698 5702 5706 5710 5715 5720 5725 5730 5735 5741 5746 5752
5802 5797 5793 5788 5783 5778 5773 5767 5762 5755 5749 5743 5736 5730 5723 5717 5712 5707 5702 5698 5694 5690 5687 5685 5683 5682 5680 5680 5680 5681 5683 5686 5689 5693 5698 5703 5708 5714 5719 5725 5730 5736 5741
5795 5791 5786 5781 5776 5771 5765 5759 5753 5746 5739 5732 5726 5719 5712 5706 5701 5696 5691 5687 5683 5679 5676 5673 5671 5670 5669 5668 5669 5669 5671 5674 5677 5681 5686 5691 5696 5702 5708 5714 5719 5726 5732
5789 5784 5780 5774 5769 5763 5757 5750 5744 5737 5730 5722 5715 5708 5701 5695 5690 5685 5680 5676 5672 5668 5665 5662 5660 5658 5657 5656 5656 5657 5659 5661 5664 5668 5673 5678 5684 5690 5697 5703 5708 5714 5721
5782 5777 5772 5767 5761 5755 5748 5741 5734 5727 5719 5711 5704 5697 5690 5684 5679 5674 5670 5665 5661 5657 5654 5651 5648 5646 5645 5644 5645 5645 5647 5649 5651 5655 5661 5665 5670 5676 5683 5690 5697 5704 5711
5775 5770 5764 5759 5752 5746 5739 5731 5724 5716 5708 5701 5693 5686 5680 5674 5669 5664 5659 5655 5651 5647 5644 5640 5638 5636 5634 5633 5633 5633 5634 5635 5638 5642 5647 5651 5657 5664 5670 5678 5686 5693 5701
5766 5761 5756 5750 5743 5736 5729 5721 5713 5705 5697 5690 5682 5676 5670 5664 5659 5654 5649 5645 5641 5637 5633 5630 5627 5625 5623 5621 5621 5621 5622 5623 5625 5628 5633 5638 5644 5650 5658 5665 5674 5681 5690
5757 5752 5746 5740 5733 5726 5719 5711 5703 5695 5687 5680 5673 5666 5660 5654 5649 5644 5640 5635 5631 5627 5623 5620 5617 5614 5612 5610 5609 5609 5609 5610 5612 5615 5619 5624 5630 5637 5645 5653 5661 5670 5678
5748 5742 5736 5729 5723 5716 5708 5700 5692 5685 5677 5670 5663 5656 5650 5645 5640 5635 5630 5626 5621 5617 5613 5610 5606 5604 5601 5599 5598 5597 5597 5598 5599 5602 5606 5611 5617 5624 5632 5639 5648 5657 5666
5737 5732 5725 5719 5712 5705 5697 5690 5682 5674 5667 5660 5653 5647 5641 5636 5631 5626 5621 5616 5612 5607 5603 5600 5596 5593 5591 5589 5587 5586 5585 5585 5587 5590 5593 5598 5604 5611 5618 5626 5635 5643 5653
5726 5720 5714 5708 5701 5694 5687 5679 5671 5664 5657 5651 5644 5638 5632 5627 5621 5617 5612 5607 5602 5598 5594 5590 5586 5583 5581 5579 5577 5575 5574 5574 5576 5578 5581 5585 5591 5598 5605 5613 5622 5630 5640
5714 5708 5702 5696 5690 5682 5675 5668 5660 5654 5647 5641 5635 5629 5624 5618 5613 5608 5603 5598 5593 5589 5585 5581 5577 5574 5572 5569 5567 5565 5564 5564 5565 5567 5569 5573 5578 5585 5593 5601 5609 5618 5628
5702 5697 5691 5684 5678 5671 5663 5656 5650 5644 5637 5631 5626 5620 5615 5609 5604 5599 5594 5589 5584 5580 5575 5572 5568 5566 5563 5561 5559 5557 5556 5555 5555 5556 5558 5562 5566 5572 5580 5588 5596 5606 5617
5690 5684 5678 5672 5665 5658 5651 5645 5639 5632 5627 5621 5616 5611 5606 5601 5596 5591 5586 5581 5576 5571 5567 5564 5561 5558 5555 5553 5552 5550 5548 5547 5546 5547 5548 5551 5555 5561 5567 5575 5584 5594 5605
5677 5671 5665 5658 5652 5646 5639 5633 5627 5622 5616 5611 5606 5602 5597 5592 5587 5582 5577 5572 5568 5563 5560 5556 5553 5550 5548 5546 5544 5543 5541 5540 5539 5539 5540 5542 5545 5550 5557 5564 5574 5583 5594
5663 5657 5651 5645 5639 5633 5627 5622 5617 5612 5607 5602 5597 5593 5588 5584 5579 5574 5569 5564 5560 5556 5552 5549 5546 5543 5541 5539 5538 5536 5535 5534 5533 5532 5533 5534 5537 5541 5548 5555 5564 5573 5583
5648 5642 5636 5630 5625 5620 5615 5610 5606 5602 5597 5593 5589 5584 5580 5575 5571 5566 5562 5557 5553 5549 5546 5542 5539 5537 5535 5534 5532 5531 5529 5528 5528 5527 5527 5528 5531 5535 5540 5547 5555 5565 5575
5631 5626 5621 5616 5611 5607 5603 5599 5595 5591 5587 5584 5580 5576 5572 5568 5564 5559 5555 5551 5546 5542 5539 5536 5533 5531 5529 5528 5526 5525 5525 5524 5523 5523 5524 5524 5526 5530 5535 5541 5548 5557 5566
5614 5610 5605 5601 5597 5594 5590 5587 5584 5581 5578 5575 5571 5568 5564 5560 5556 5552 5548 5544 5540 5536 5533 5530 5527 5525 5523 5522 5521 5520 5520 5519 5520 5520 5520 5522 5523 5526 5531 5536 5543 5550 5559
5598 5594 5590 5587 5584 5581 5578 5576 5574 5571 5568 5566 5563 5560 5557 5553 5550 5546 5542 5538 5534 5530 5527 5524 5521 5519 5518 5516 5515 5515 5515 5515 5515 5516 5518 5519 5521 5524 5528 5533 5539 5546 5553
5581 5578 5575 5573 5571 5569 5567 5565 5563 5561 5559 5557 5555 5552 5549 5546 5543 5540 5536 5532 5529 5525 5521 5518 5515 5513 5512 5510 5510 5510 5510 5510 5511 5513 5514 5516 5518 5521 5525 5530 5536 5542 5549
5566 5563 5561 5560 5559 5557 5556 5555 5554 5552 5551 5549 5547 5545 5542 5539 5537 5533 5530 5527 5523 5519 5516 5512 5510 5508 5506 5505 5504 5504 5505 5506 5507 5509 5511 5513 5515 5519 5522 5527 5532 5538 5544
5550 5549 5548 5547 5547 5547 5546 5545 5545 5544 5543 5542 5540 5538 5536 5533 5530 5528 5525 5521 5518 5514 5510 5507 5505 5502 5501 5500 5499 5499 5500 5501 5502 5504 5507 5509 5512 5515 5519 5524 5529 5534 5540